Location: Artiguedieu
(43.5000°N, 0.5454°E)
Time: 08:25:37
(UTC+00:00)

Vanguard 1 Rocket - Pass Details

Date: 05 August 2021
Orbit: 650 x 4226 km, 34.3° (Epoch: 24 September)

Event Time Altitude Azimuth Distance (km) Brightness Sun altitude
Rises 04:20:40 0° 171° (S) 8,306 12.1 -5.8°
Reaches altitude 10° 04:36:02 10° 140° (SE) 7,375 12.2 -3.4°
Maximum altitude 04:39:56 11° 131° (SE) 7,231 12.3 -2.8°
Drops below altitude 10° 04:43:42 10° 122° (ESE) 7,145 12.4 -2.2°
Sets 04:56:38 0° 91° (E) 7,366 13.4 0.0°
